Time,TemperatureF,DewpointF,PressureIn,WindDirection,WindDirectionDegrees,WindSpeedMPH,WindSpeedGustMPH,Humidity,HourlyPrecipIn,Conditions,Clouds,dailyrainin,SolarRadiationWatts/m^2,SoftwareType,DateUTC
2013-04-22 00:03:00,48.0,38.0,30.66,NE,55,6.0,19.0,68,0.00,,,0.00,0.000000,,2013-04-22 04:03:00,
2013-04-22 00:12:00,48.0,38.0,30.66,NE,55,6.0,19.0,68,0.00,,,0.00,0.000000,,2013-04-22 04:12:00,
2013-04-22 00:43:00,47.0,38.0,30.64,NE,39,8.0,19.0,70,0.00,,,0.00,0.000000,,2013-04-22 04:43:00,
2013-04-22 00:53:00,47.0,38.0,30.64,NE,39,8.0,19.0,70,0.00,,,0.00,0.000000,,2013-04-22 04:53:00,
2013-04-22 01:03:00,47.0,38.0,30.64,NE,39,8.0,19.0,70,0.00,,,0.00,0.000000,,2013-04-22 05:03:00,
2013-04-22 01:12:00,47.0,38.0,30.64,NE,39,8.0,19.0,70,0.00,,,0.00,0.000000,,2013-04-22 05:12:00,
2013-04-22 01:42:00,45.0,37.0,30.62,NE,38,9.0,17.0,73,0.00,,,0.00,0.000000,,2013-04-22 05:42:00,
2013-04-22 01:52:00,45.0,37.0,30.62,NE,38,9.0,17.0,73,0.00,,,0.00,0.000000,,2013-04-22 05:52:00,
2013-04-22 02:02:00,45.0,37.0,30.62,NE,38,9.0,17.0,73,0.00,,,0.00,0.000000,,2013-04-22 06:02:00,
2013-04-22 02:12:00,45.0,37.0,30.62,NE,38,9.0,17.0,73,0.00,,,0.00,0.000000,,2013-04-22 06:12:00,
2013-04-22 02:42:00,43.0,38.0,30.58,NE,37,9.0,23.0,81,0.00,,,0.00,0.000000,,2013-04-22 06:42:00,
2013-04-22 02:52:00,43.0,38.0,30.58,NE,37,9.0,23.0,81,0.00,,,0.00,0.000000,,2013-04-22 06:52:00,
2013-04-22 03:01:00,43.0,38.0,30.58,NE,37,9.0,23.0,81,0.00,,,0.00,0.000000,,2013-04-22 07:01:00,
2013-04-22 03:12:00,43.0,38.0,30.58,NE,37,9.0,23.0,81,0.00,,,0.00,0.000000,,2013-04-22 07:12:00,
2013-04-22 03:42:00,43.0,38.0,30.57,NE,35,10.0,21.0,84,0.00,,,0.00,0.000000,,2013-04-22 07:42:00,
2013-04-22 03:52:00,43.0,38.0,30.57,NE,35,10.0,21.0,84,0.00,,,0.00,0.000000,,2013-04-22 07:52:00,
2013-04-22 04:02:00,43.0,38.0,30.57,NE,35,10.0,21.0,84,0.00,,,0.00,0.000000,,2013-04-22 08:02:00,
2013-04-22 04:11:00,43.0,38.0,30.57,NE,35,10.0,21.0,84,0.00,,,0.00,0.000000,,2013-04-22 08:11:00,
2013-04-22 04:42:00,42.0,39.0,30.57,NNE,33,8.0,17.0,88,0.00,,,0.00,0.000000,,2013-04-22 08:42:00,
2013-04-22 04:53:00,42.0,39.0,30.57,NNE,33,8.0,17.0,88,0.00,,,0.00,0.000000,,2013-04-22 08:53:00,
2013-04-22 05:01:00,42.0,39.0,30.57,NNE,33,8.0,17.0,88,0.00,,,0.00,0.000000,,2013-04-22 09:01:00,
2013-04-22 05:11:00,42.0,39.0,30.57,NNE,33,8.0,17.0,88,0.00,,,0.00,0.000000,,2013-04-22 09:11:00,
2013-04-22 05:42:00,42.0,39.0,30.55,NNE,30,10.0,19.0,89,0.00,,,0.00,0.000000,,2013-04-22 09:42:00,
2013-04-22 05:53:00,42.0,39.0,30.55,NNE,30,10.0,19.0,89,0.00,,,0.00,0.000000,,2013-04-22 09:53:00,
2013-04-22 06:03:00,42.0,39.0,30.55,NNE,30,10.0,19.0,89,0.00,,,0.00,0.000000,,2013-04-22 10:03:00,
2013-04-22 06:12:00,42.0,39.0,30.55,NNE,30,10.0,19.0,89,0.00,,,0.00,0.000000,,2013-04-22 10:12:00,
2013-04-22 06:42:00,43.0,40.0,30.55,NNE,18,9.0,22.0,90,0.00,,,0.00,0.000000,,2013-04-22 10:42:00,
2013-04-22 06:53:00,43.0,40.0,30.55,NNE,18,9.0,22.0,90,0.00,,,0.00,0.000000,,2013-04-22 10:53:00,
2013-04-22 07:02:00,43.0,40.0,30.55,NNE,18,9.0,22.0,90,0.00,,,0.00,0.000000,,2013-04-22 11:02:00,
2013-04-22 07:12:00,43.0,40.0,30.55,NNE,18,9.0,22.0,90,0.00,,,0.00,0.000000,,2013-04-22 11:12:00,
2013-04-22 07:42:00,43.0,39.0,30.56,NNE,31,10.0,22.0,86,0.00,,,0.00,4.000000,,2013-04-22 11:42:00,
2013-04-22 07:53:00,43.0,39.0,30.56,NNE,31,10.0,22.0,86,0.00,,,0.00,4.000000,,2013-04-22 11:53:00,
2013-04-22 08:02:00,43.0,39.0,30.56,NNE,31,10.0,22.0,86,0.00,,,0.00,4.000000,,2013-04-22 12:02:00,
2013-04-22 08:12:00,43.0,39.0,30.56,NNE,31,10.0,22.0,86,0.00,,,0.00,4.000000,,2013-04-22 12:12:00,
2013-04-22 08:42:00,47.0,42.0,30.55,NNE,32,10.0,22.0,84,0.00,,,0.00,52.000000,,2013-04-22 12:42:00,
2013-04-22 08:52:00,47.0,42.0,30.55,NNE,32,10.0,22.0,84,0.00,,,0.00,52.000000,,2013-04-22 12:52:00,
2013-04-22 09:01:00,47.0,42.0,30.55,NNE,32,10.0,22.0,84,0.00,,,0.00,52.000000,,2013-04-22 13:01:00,
2013-04-22 09:11:00,47.0,42.0,30.55,NNE,32,10.0,22.0,84,0.00,,,0.00,52.000000,,2013-04-22 13:11:00,
2013-04-22 09:42:00,51.0,44.0,30.54,NE,36,11.0,26.0,77,0.00,,,0.00,188.000000,,2013-04-22 13:42:00,
2013-04-22 09:53:00,51.0,44.0,30.54,NE,36,11.0,26.0,77,0.00,,,0.00,188.000000,,2013-04-22 13:53:00,
2013-04-22 10:02:00,51.0,44.0,30.54,NE,36,11.0,26.0,77,0.00,,,0.00,188.000000,,2013-04-22 14:02:00,
2013-04-22 10:12:00,51.0,44.0,30.54,NE,36,11.0,26.0,77,0.00,,,0.00,188.000000,,2013-04-22 14:12:00,
2013-04-22 10:42:00,54.0,46.0,30.54,NNE,27,10.0,22.0,73,0.00,,,0.00,369.000000,,2013-04-22 14:42:00,
2013-04-22 10:52:00,54.0,46.0,30.54,NNE,27,10.0,22.0,73,0.00,,,0.00,369.000000,,2013-04-22 14:52:00,
2013-04-22 11:02:00,54.0,46.0,30.54,NNE,27,10.0,22.0,73,0.00,,,0.00,369.000000,,2013-04-22 15:02:00,
2013-04-22 11:12:00,54.0,46.0,30.54,NNE,27,10.0,22.0,73,0.00,,,0.00,369.000000,,2013-04-22 15:12:00,
2013-04-22 11:43:00,55.0,45.0,30.54,NNE,19,11.0,22.0,70,0.00,,,0.00,455.000000,,2013-04-22 15:43:00,
2013-04-22 11:53:00,55.0,45.0,30.54,NNE,19,11.0,22.0,70,0.00,,,0.00,455.000000,,2013-04-22 15:53:00,
2013-04-22 12:03:00,55.0,45.0,30.54,NNE,19,11.0,22.0,70,0.00,,,0.00,455.000000,,2013-04-22 16:03:00,
2013-04-22 12:12:00,55.0,45.0,30.54,NNE,19,11.0,22.0,70,0.00,,,0.00,455.000000,,2013-04-22 16:12:00,
2013-04-22 12:42:00,60.0,49.0,30.52,NNE,12,11.0,23.0,67,0.00,,,0.00,428.000000,,2013-04-22 16:42:00,
2013-04-22 12:52:00,60.0,49.0,30.52,NNE,12,11.0,23.0,67,0.00,,,0.00,428.000000,,2013-04-22 16:52:00,
2013-04-22 13:02:00,60.0,49.0,30.52,NNE,12,11.0,23.0,67,0.00,,,0.00,428.000000,,2013-04-22 17:02:00,
2013-04-22 13:12:00,60.0,49.0,30.52,NNE,12,11.0,23.0,67,0.00,,,0.00,428.000000,,2013-04-22 17:12:00,
2013-04-22 13:32:00,60.0,47.0,30.48,NNE,22,12.0,25.0,61,0.00,,,0.00,573.000000,,2013-04-22 17:32:00,
2013-04-22 13:43:00,60.0,47.0,30.48,NNE,22,12.0,25.0,61,0.00,,,0.00,573.000000,,2013-04-22 17:43:00,
2013-04-22 13:52:00,60.0,47.0,30.48,NNE,22,12.0,25.0,61,0.00,,,0.00,573.000000,,2013-04-22 17:52:00,
2013-04-22 14:02:00,60.0,47.0,30.48,NNE,22,12.0,25.0,61,0.00,,,0.00,573.000000,,2013-04-22 18:02:00,
2013-04-22 14:12:00,60.0,47.0,30.48,NNE,22,12.0,25.0,61,0.00,,,0.00,573.000000,,2013-04-22 18:12:00,
2013-04-22 14:42:00,62.0,50.0,30.46,NNE,26,13.0,27.0,64,0.00,,,0.00,500.000000,,2013-04-22 18:42:00,
2013-04-22 14:52:00,62.0,50.0,30.46,NNE,26,13.0,27.0,64,0.00,,,0.00,500.000000,,2013-04-22 18:52:00,
2013-04-22 15:02:00,62.0,50.0,30.46,NNE,26,13.0,27.0,64,0.00,,,0.00,500.000000,,2013-04-22 19:02:00,
2013-04-22 15:12:00,62.0,50.0,30.46,NNE,26,13.0,27.0,64,0.00,,,0.00,500.000000,,2013-04-22 19:12:00,
2013-04-22 15:42:00,61.0,50.0,30.45,NE,34,13.0,26.0,66,0.00,,,0.00,345.000000,,2013-04-22 19:42:00,
2013-04-22 15:53:00,61.0,50.0,30.45,NE,34,13.0,26.0,66,0.00,,,0.00,345.000000,,2013-04-22 19:53:00,
2013-04-22 16:02:00,61.0,50.0,30.45,NE,34,13.0,26.0,66,0.00,,,0.00,345.000000,,2013-04-22 20:02:00,
2013-04-22 16:11:00,61.0,50.0,30.45,NE,34,13.0,26.0,66,0.00,,,0.00,345.000000,,2013-04-22 20:11:00,
2013-04-22 16:42:00,61.0,49.0,30.43,NNE,19,13.0,29.0,65,0.00,,,0.00,207.000000,,2013-04-22 20:42:00,
2013-04-22 16:52:00,61.0,49.0,30.43,NNE,19,13.0,29.0,65,0.00,,,0.00,207.000000,,2013-04-22 20:52:00,
2013-04-22 17:02:00,61.0,49.0,30.43,NNE,19,13.0,29.0,65,0.00,,,0.00,207.000000,,2013-04-22 21:02:00,
2013-04-22 17:12:00,61.0,49.0,30.43,NNE,19,13.0,29.0,65,0.00,,,0.00,207.000000,,2013-04-22 21:12:00,
2013-04-22 17:43:00,60.0,49.0,30.42,NNE,23,14.0,30.0,67,0.00,,,0.00,215.000000,,2013-04-22 21:43:00,
2013-04-22 17:53:00,60.0,49.0,30.42,NNE,23,14.0,30.0,67,0.00,,,0.00,215.000000,,2013-04-22 21:53:00,
2013-04-22 18:03:00,60.0,49.0,30.42,NNE,23,14.0,30.0,67,0.00,,,0.00,215.000000,,2013-04-22 22:03:00,
2013-04-22 18:12:00,60.0,49.0,30.42,NNE,23,14.0,30.0,67,0.00,,,0.00,215.000000,,2013-04-22 22:12:00,
2013-04-22 18:42:00,58.0,50.0,30.42,NNE,26,15.0,29.0,75,0.00,,,0.00,136.000000,,2013-04-22 22:42:00,
2013-04-22 18:52:00,58.0,50.0,30.42,NNE,26,15.0,29.0,75,0.00,,,0.00,136.000000,,2013-04-22 22:52:00,
2013-04-22 19:02:00,58.0,50.0,30.42,NNE,26,15.0,29.0,75,0.00,,,0.00,136.000000,,2013-04-22 23:02:00,
2013-04-22 19:11:00,58.0,50.0,30.42,NNE,26,15.0,29.0,75,0.00,,,0.00,136.000000,,2013-04-22 23:11:00,
2013-04-22 19:43:00,56.0,50.0,30.43,NNE,19,13.0,34.0,81,0.00,,,0.00,73.000000,,2013-04-22 23:43:00,
2013-04-22 19:52:00,56.0,50.0,30.43,NNE,19,13.0,34.0,81,0.00,,,0.00,73.000000,,2013-04-22 23:52:00,
2013-04-22 20:02:00,56.0,50.0,30.43,NNE,19,13.0,34.0,81,0.00,,,0.00,73.000000,,2013-04-23 00:02:00,
2013-04-22 20:12:00,56.0,50.0,30.43,NNE,19,13.0,34.0,81,0.00,,,0.00,73.000000,,2013-04-23 00:12:00,
2013-04-22 20:42:00,53.0,48.0,30.43,NNE,20,12.0,27.0,84,0.00,,,0.00,24.000000,,2013-04-23 00:42:00,
2013-04-22 20:52:00,53.0,48.0,30.43,NNE,20,12.0,27.0,84,0.00,,,0.00,24.000000,,2013-04-23 00:52:00,
2013-04-22 21:01:00,53.0,48.0,30.43,NNE,20,12.0,27.0,84,0.00,,,0.00,24.000000,,2013-04-23 01:01:00,
2013-04-22 21:11:00,53.0,48.0,30.43,NNE,20,12.0,27.0,84,0.00,,,0.00,24.000000,,2013-04-23 01:11:00,
2013-04-22 21:42:00,52.0,48.0,30.43,NNE,18,11.0,25.0,87,0.00,,,0.00,0.000000,,2013-04-23 01:42:00,
2013-04-22 21:52:00,52.0,48.0,30.43,NNE,18,11.0,25.0,87,0.00,,,0.00,0.000000,,2013-04-23 01:52:00,
2013-04-22 22:02:00,52.0,48.0,30.43,NNE,18,11.0,25.0,87,0.00,,,0.00,0.000000,,2013-04-23 02:02:00,
2013-04-22 22:12:00,52.0,48.0,30.43,NNE,18,11.0,25.0,87,0.00,,,0.00,0.000000,,2013-04-23 02:12:00,
2013-04-22 22:42:00,52.0,50.0,30.43,North,8,10.0,25.0,94,0.00,,,0.00,0.000000,,2013-04-23 02:42:00,
2013-04-22 22:52:00,52.0,50.0,30.43,North,8,10.0,25.0,94,0.00,,,0.00,0.000000,,2013-04-23 02:52:00,
2013-04-22 23:02:00,52.0,50.0,30.43,North,8,10.0,25.0,94,0.00,,,0.00,0.000000,,2013-04-23 03:02:00,
2013-04-22 23:11:00,52.0,50.0,30.43,North,8,10.0,25.0,94,0.00,,,0.00,0.000000,,2013-04-23 03:11:00,
2013-04-22 23:43:00,50.0,49.0,30.43,NNE,18,9.0,20.0,95,0.00,,,0.00,0.000000,,2013-04-23 03:43:00,
2013-04-22 23:53:00,50.0,49.0,30.43,NNE,18,9.0,20.0,95,0.00,,,0.00,0.000000,,2013-04-23 03:53:00,